Location: Rumah Long Bangan
(2.8362°N, 113.7519°E)
Time: 05:22:58
(UTC+00:00)

Cosmos 2112 Rocket - Pass Details

Date: 24 October 2021
Orbit: 755 x 788 km, 74.1° (Epoch: 28 November)

Event Time Altitude Azimuth Distance (km) Brightness Sun altitude
Rises 21:16:36 0° 208° (SSW) 3,203 7.0 -13.4°
Reaches altitude 10° 21:19:08 10° 217° (SW) 2,278 6.2 -12.8°
Maximum altitude 21:23:50 36° 283° (WNW) 1,187 4.5 -11.7°
Drops below altitude 10° 21:28:33 10° 349° (NNW) 2,282 6.2 -10.5°
Sets 21:31:05 0° 357° (N) 3,210 7.1 -9.9°
